Tracking 28794 objects as of 19-Apr-2024
HD Live streaming from Space Station
objects crossing your sky now

JILIN-01 GAOFEN 3D 4

Track JILIN-01 GAOFEN 3D 4 now!
10-day predictions


NORAD ID: 52389
Int'l Code: 2022-046B
Perigee: 506.1 km
Apogee: 512.7 km
Inclination: 97.5 °
Period: 94.7 minutes
Semi major axis: 6880 km
RCS: Unknown
Launch date: April 30, 2022
Source: People's Republic of China (PRC)
Launch site: Yellow Sea Launch Area, China (YSLA)
Your satellite tracking list
Your tracking list is empty




NASA's NSSDC Master Catalog

Two Line Element Set (TLE):
1 52389U 22046B   24110.57626221  .00031460  00000-0  14093-2 0  9993
2 52389  97.5049 200.2951 0004780   4.8978 355.2303 15.21178529108996
Source of the keplerian elements: AFSPC